DLH82V EDDF-LPPR

Flight info

Callsign DLH82V
Flight time N/A
Altitude 36000
Route SOBRA2L/18 SOBRA Y180 DIK UN857 TOLVU/N0441F350 DCT RAPOR DCT GIMER DCT ESTOC UT300 PON UN872 GODIX/N0433F310 UN872 DIDAK/N0448F370 UN872 TERPO/N0441F350 UN872 ERIGA UZ218 FUJTI DCT ATLEN DCT INSID T326 ASPOR
Aircraft A321/M-SDE2E3FGIJ1LORWXYZ/HB1

Departure

Time 2026-04-15 07:48
Airport Frankfurt Main Airport (EDDF)

Arrival

Time N/A
Airport Francisco de Sá Carneiro Airport (LPPR)
Time Latitude Longitude Altitude Speed Heading
2026-04-15 07:14 50.04068 8.55643 351 ft 0 kts 160°
2026-04-15 07:42 50.04067 8.55643 360 ft 1 kts 160°
2026-04-15 07:42 50.04056 8.55649 358 ft 3 kts 160°
2026-04-15 07:42 50.04033 8.55663 356 ft 5 kts 160°
2026-04-15 07:42 50.03992 8.55669 350 ft 7 kts 201°
2026-04-15 07:43 50.03963 8.55591 357 ft 10 kts 248°
2026-04-15 07:43 50.03939 8.55491 354 ft 10 kts 250°
2026-04-15 07:43 50.03912 8.55379 349 ft 12 kts 250°
2026-04-15 07:43 50.03881 8.55247 355 ft 14 kts 250°
2026-04-15 07:44 50.03846 8.55100 351 ft 15 kts 250°
2026-04-15 07:44 50.03806 8.54934 356 ft 17 kts 249°
2026-04-15 07:44 50.03761 8.54748 351 ft 19 kts 249°
2026-04-15 07:44 50.03711 8.54540 351 ft 22 kts 250°
2026-04-15 07:45 50.03656 8.54307 348 ft 24 kts 250°
2026-04-15 07:45 50.03597 8.54060 345 ft 25 kts 249°
2026-04-15 07:45 50.03538 8.53815 337 ft 24 kts 250°
2026-04-15 07:45 50.03480 8.53569 338 ft 23 kts 250°
2026-04-15 07:46 50.03422 8.53326 335 ft 22 kts 249°
2026-04-15 07:46 50.03366 8.53093 335 ft 24 kts 250°
2026-04-15 07:46 50.03308 8.52847 334 ft 21 kts 250°
2026-04-15 07:46 50.03264 8.52666 334 ft 15 kts 249°
2026-04-15 07:47 50.03219 8.52594 333 ft 8 kts 184°
2026-04-15 07:47 50.03140 8.52597 335 ft 24 kts 179°
2026-04-15 07:47 50.02670 8.52603 333 ft 106 kts 179°
2026-04-15 07:47 50.01710 8.52613 332 ft 167 kts 179°
2026-04-15 07:48 50.00481 8.52635 871 ft 177 kts 179°
2026-04-15 07:48 49.99252 8.52686 1715 ft 178 kts 175°
2026-04-15 07:48 49.97946 8.52800 2062 ft 201 kts 174°
2026-04-15 07:48 49.96479 8.52962 2364 ft 222 kts 173°
2026-04-15 07:49 49.94889 8.53096 2978 ft 231 kts 175°
2026-04-15 07:49 49.93289 8.53188 3889 ft 229 kts 175°
2026-04-15 07:49 49.91689 8.53287 4701 ft 232 kts 176°
2026-04-15 07:49 49.90065 8.53374 5515 ft 235 kts 176°
2026-04-15 07:50 49.88421 8.53463 6335 ft 237 kts 178°
2026-04-15 07:50 49.86773 8.53181 7064 ft 244 kts 194°
2026-04-15 07:50 49.85089 8.52279 7387 ft 267 kts 199°
2026-04-15 07:50 49.83311 8.51264 7973 ft 276 kts 200°
2026-04-15 07:51 49.81500 8.50225 8702 ft 279 kts 200°
2026-04-15 07:51 49.79665 8.49172 9426 ft 284 kts 200°
2026-04-15 07:51 49.77903 8.47779 10143 ft 287 kts 219°
2026-04-15 07:51 49.76604 8.45437 10721 ft 294 kts 241°
2026-04-15 07:52 49.76002 8.42329 10866 ft 315 kts 267°
2026-04-15 07:52 49.76318 8.38895 11132 ft 331 kts 284°
2026-04-15 07:52 49.76904 8.35410 11704 ft 336 kts 284°
2026-04-15 07:52 49.77484 8.31892 12348 ft 339 kts 284°
2026-04-15 07:53 49.78060 8.28334 12997 ft 343 kts 284°
2026-04-15 07:53 49.78636 8.24742 13636 ft 346 kts 284°
2026-04-15 07:53 49.79216 8.21114 14258 ft 349 kts 284°
2026-04-15 07:53 49.79800 8.17447 14842 ft 352 kts 284°
2026-04-15 07:54 49.80386 8.13766 15409 ft 354 kts 284°
2026-04-15 07:54 49.80979 8.10040 15998 ft 357 kts 284°
2026-04-15 07:54 49.81574 8.06288 16564 ft 360 kts 284°
2026-04-15 07:54 49.82176 8.02497 17129 ft 364 kts 284°
2026-04-15 07:55 49.82780 7.98674 17680 ft 367 kts 285°
2026-04-15 07:55 49.83384 7.94828 18206 ft 370 kts 285°
2026-04-15 07:55 49.84611 7.87010 19180 ft 376 kts 285°